Regional Weather Roundup
Issued by NWS Grand Forks, ND

Home | Current Version | Previous Version | Graphics & Text | Print | Product List | Glossary On
Versions: 1 2 3 4 5 6 7 8 9 10 11 12 13 14 15 16 17 18 19 20 21 22 23 24 25 26 27 28 29 30 31 32 33 34 35 36 37 38 39 40 41 42 43 44 45 46 47 48 49 50
000
ASUS43 KFGF 202310
RWRFGF
PRAIRIE TO PINES  WEATHER ROUNDUP
NATIONAL WEATHER SERVICE EASTERN NORTH DAKOTA/GRAND FORKS ND
600 PM CDT SUN MAY 20 2018

 **SATELLITE DATA USED TO AUGMENT SKY COVER AT AUTOMATED STATIONS**
 *****  WEATHER ACROSS EASTERN NORTH DAKOTA  *****

CITY           SKY/WX    TMP DP  RH WIND       PRES   REMARKS
GRAND FORKS    FAIR      74  34  23 E5        30.13F
GRAND FRKS AFB FAIR      74  36  25 S7        30.14F
GRAND FRKS NWS   N/A     74  38  27 S2        30.11F
DEVILS LAKE    FAIR      71  33  24 SW6       30.15F
FARGO          FAIR      71  35  26 E5        30.14F
WAHPETON ARPT  FAIR      72  23  16 E10       30.14F
$$

 ***** WEATHER ACROSS CENTRAL AND WESTERN NORTH DAKOTA  *****

CITY           SKY/WX    TMP DP  RH WIND       PRES   REMARKS
BISMARCK       FAIR      70  34  26 S14       30.14F
MINOT          FAIR      75  28  17 SE13      30.10F
JAMESTOWN      FAIR      69  36  29 S6        30.15F
MINOT AFB      FAIR      74  29  19 S12G18    30.09F
GARRISON         N/A     70  29  21 S16       30.12F
WILLISTON      FAIR      73  34  23 SE14G22   30.07F
DICKINSON      FAIR      68  31  25 S21G28    30.09F
HETTINGER      FAIR      63  33  32 SE15      30.13F
$$

 *****  OTHER AIRPORT OBSERVATIONS IN OUR AREA  *****

CITY           SKY/WX    TMP DP  RH WIND       PRES   REMARKS
WALHALLA       FAIR      75  30  19 VRB7      30.11F
GRAFTON AIRPOR FAIR      73  36  25 S5        30.14F
VALLEY CITY AR FAIR      68  34  28 CALM      30.17F
CANDO          FAIR      73  34  23 S13       30.15F
CAVALIER APRT    N/A     75  30  19 S6G13     30.11F
GWINNER          N/A     73  25  16 NE14      30.14F
SHEYENNE NWR     N/A     73  31  21 E7        29.95S
ROLLA          FAIR      72  28  20 SW8       30.13F
 ***** THE ABOVE OBSERVATIONS ARE NON NWS ARE NOT QUALITY
       CONTROLLED AND MAY MIS-REPORT RAIN FOR SNOW...
$$

  *****  WEATHER ACROSS NORTHERN MINNESOTA  *****

CITY           SKY/WX    TMP DP  RH WIND       PRES   REMARKS
FLAG ISLAND    FAIR      59  45  58 S12       30.12F
WARROAD        FAIR      73  37  27 S3        30.15F
ROSEAU         FAIR      73  34  23 SW7       30.14F
HALLOCK        FAIR      75  27  16 W7        30.12F
THF RVR FALLS  FAIR      72  31  22 E5        30.16F
BAUDETTE       FAIR      73  31  21 CALM      30.14F
WASKISH        FAIR      70  34  26 W5        30.17F
CROOKSTON      FAIR      73  32  21 S6        30.15F
STEPHEN NDAWN    N/A     75  34  22 SW1         N/A
GREENBUSH NDAW   N/A     73  36  25 SW6         N/A
$$
  *****  WEATHER ACROSS CENTRAL AND WEST MINNESOTA  *****

CITY           SKY/WX    TMP DP  RH WIND       PRES   REMARKS
FOSSTON        FAIR      73  30  20 NW3       30.17F
BEMIDJI        FAIR      69  31  24 CALM      30.17F
PARK RAPIDS    FAIR      70  26  19 E9        30.16F
ELBOW LAKE     FAIR      70  34  26 SE9       30.15F
WADENA         FAIR      70  36  28 E8        30.16F
DETROIT LAKES  FAIR      70  32  24 CALM      30.17F
MOORHEAD       FAIR      73  28  19 E7        30.15F
FERGUS FALLS   FAIR      70  32  24 E8        30.11S
MORRIS MN      FAIR      72  27  18 E13       30.13S
STAPLES        FAIR      70  25  18 E6        30.17S
$$
  *****  WEATHER ELSEWHERE ACROSS MINNESOTA  *****

CITY           SKY/WX    TMP DP  RH WIND       PRES   REMARKS
DULUTH         FAIR      68  27  21 VRB6      30.18F
INTRNTL FALLS  FAIR      73  29  19 SW6       30.14F
ELY            FAIR      70  27  19 N3        30.16F
CLOQUET        FAIR      66  12  12 E3        30.18F
WHEATON        FAIR      72  19  14 E9        30.14F
BRAINERD       FAIR      71  31  22 NE8       30.17F
HIBBING        FAIR      68  32  26 SW3       30.17F
ALEXANDRIA     FAIR      72  30  21 E8        30.16F
SAINT CLOUD    FAIR      70  23  17 E9G21     30.15F
MINNEAPOLIS    PTSUNNY   72  31  22 NE10      30.13F
$$

  *****  WEATHER ACROSS SOUTH DAKOTA  *****

CITY           SKY/WX    TMP DP  RH WIND       PRES   REMARKS
SIOUX FALLS    CLOUDY    59  48  67 E8        30.11F
BROOKINGS      CLOUDY    64  43  46 SE10      30.11F
WATERTOWN      PTSUNNY   67  26  21 E12       30.11F
HURON          CLOUDY    63  35  35 N5        30.11F
SISSETON         N/A     72  26  18 E13       30.12F
ABERDEEN       FAIR      72  29  20 E13G18    30.13F
MITCHELL       CLOUDY    62  40  44 CALM      30.12F
PIERRE         PTSUNNY   65  36  34 SE8       30.11F
MOBRIDGE       FAIR      70  38  31 E9        30.11F
RAPID CITY     FAIR      58  39  49 SE12      30.12F
$$

  *****  SOME WEATHER IN NEARBY STATES *****

CITY           SKY/WX    TMP DP  RH WIND       PRES   REMARKS
GLASGOW MT     FAIR      73  37  27 SE24      29.97F
GREAT FALLS MT FAIR      77  41  27 CALM      29.88F
CHEYENNE WY    CLOUDY    50  42  74 S14       30.15F
SCOTTSBLUFF NE FAIR      63  45  51 SE8       30.11F
OMAHA NE       CLOUDY    58  54  86 N13       30.07S
DES MOINES IA  CLOUDY    66  60  81 NE7       30.06F
DAVENPORT IA   FAIR      64  55  72 NE13      30.12S
CHICAGO IL     CLOUDY    49  41  74 NE14      30.16S
EAU CLAIRE WI  FAIR      71  31  22 E9        30.14F
LA CROSSE WI   FAIR      63  49  60 E5        30.15F
$$

  *****  SOME NATIONAL WEATHER *****

CITY           SKY/WX    TMP DP  RH WIND       PRES   REMARKS
LA GUARDIA NY  PTSUNNY   74  59  59 NW16G22   29.96R
RALEIGH NC     CLOUDY    80  71  74 SW9       30.09S
ATLANTA GA     TSTM      69  69 100 S12       30.12S FOG
NEW ORLEANS LA FAIR      89  68  49 SE12      29.98S HX  93
OKLAHOMA CITY  PTSUNNY   71  58  63 NW6       30.04S
ALBUQUERQUE NM FAIR      81  27  14 S10G21    29.99F
SALT LAKE CITY PTSUNNY   65  49  56 E18       29.91F
LOS ANGELES CA PTSUNNY   66  54  65 W12       29.91F
BOISE ID       PTSUNNY   66  54  65 CALM      29.82F
SEATTLE WA     PTSUNNY   65  52  62 S7        30.04F
$$

*** WEATHER ACROSS MANITOBA...SASKATCHEWAN AND ONTARIO ***
                ***ONTARIO***

CITY           SKY/WX    TMP DP  RH WIND       PRES   REMARKS
GERALDTON      MOSUNNY   68  34  28 W7G21     30.05S
THUNDER BAY    SUNNY     75  34  22 NW12G18   30.11S
SIOUX LOOKOUT  MOSUNNY   75  32  20 W6        30.09F
TORONTO        PTSUNNY   64  48  55 N16       30.11R
BIG TROUT LK   SUNNY     57  25  28 NW12G17   30.02F
PICKLE LAKE    PTSUNNY   70  36  28 NW10G20   30.02S
DRYDEN         SUNNY     73  30  20 SW15G23   30.12F
KENORA         MOSUNNY   70  34  26 S12G20    30.14F
$$
                *** MANITOBA***

CITY           SKY/WX    TMP DP  RH WIND       PRES   REMARKS
BRANDON        SUNNY     77  23  13 W9G18     30.08F
DAUPHIN        SUNNY     81  27  13 SW10      30.03F
ISLAND LAKE    MOSUNNY   63  41  45 SE8       30.01F
PILOT MOUND      N/A     75  23  14 SW10        N/A
THE PAS        SUNNY     77  30  18 W10G18    29.95F
THOMPSON       PTSUNNY   61  39  44 NE12G18   29.96F
WINNIPEG       MOSUNNY   79  30  17 SW8G22    30.08F
LYNN LAKE      MOSUNNY   72  43  35 NE13G18   29.88F HAZE
CHURCHILL      MOSUNNY   25  19  80 N9        30.12S WCI  15
GILLAM         CLOUDY    45  30  57 VRB2      30.05S
$$
                ***SASKATCHEWAN***

CITY           SKY/WX    TMP DP  RH WIND       PRES   REMARKS
ESTEVAN        MOSUNNY   73  30  20 SE17G24   30.07F
KINDERSLEY     MOSUNNY   77  37  24 S17G24    29.82F
LLOYDMINSTER   MOSUNNY   73  41  31 SE15G30   29.82F
PRINCE ALBERT  MOSUNNY   77  30  18 SW17G24   29.95F
REGINA         MOSUNNY   75  23  14 S26       30.00F
YORKTON        SUNNY     75  25  15 S12G25    30.03F
N. BATTLEFORD  SUNNY     77  37  24 S17G28    29.87F
LA RONGE       SUNNY     77  23  13 S13G20    29.90F
SASKATOON      MOSUNNY   77  32  19 S21G29    29.92F
SWIFT CURRENT  MOSUNNY   75  45  33 S21G33    29.89F
$$
NOTE: THESE ARE AUTOMATED STATIONS WITH LIMITED QUALITY CONTROL
      "FAIR" INDICATES FEW OR NO CLOUDS BELOW 12,000 FEET WITH NO
      SIGNIFICANT WEATHER AND/OR OBSTRUCTIONS TO VISIBILITY.
      SKY/WX - SKY CONDITION AND SIGNIFICANT WEATHER.
      TMP - AIR TEMPERATURE.    DP   - DEWPOINT TEMPERATURE.
      RH  - RELATIVE HUMIDITY.  PRES - PRESSURE.
      HX  - HEAT INDEX.         WCI  - WIND CHILL INDEX.
$




USA.gov is the U.S. government's official web portal to all federal, state and local government web resources and services.